Time,TemperatureF,DewpointF,PressureIn,WindDirection,WindDirectionDegrees,WindSpeedMPH,WindSpeedGustMPH,Humidity,HourlyPrecipIn,Conditions,Clouds,dailyrainin,SoftwareType,DateUTC
2013-01-11 00:00:00,32.0,29.7,29.59,NW,315,17.0,17.0,91,0.00,,,0.00,VWS V14.01,2013-01-11 07:00:00,
2013-01-11 00:05:00,32.0,29.9,29.59,NNW,337,16.0,18.0,92,0.00,,,0.00,VWS V14.01,2013-01-11 07:05:00,
2013-01-11 00:10:00,31.0,29.5,29.59,NW,315,16.0,18.0,94,0.00,,,0.00,VWS V14.01,2013-01-11 07:10:00,
2013-01-11 00:15:00,31.0,29.7,29.59,NW,315,17.0,20.0,95,0.00,,,0.00,VWS V14.01,2013-01-11 07:15:00,
2013-01-11 00:21:00,31.0,29.7,29.59,NW,315,19.0,20.0,95,0.00,,,0.00,VWS V14.01,2013-01-11 07:21:00,
2013-01-11 00:26:00,30.0,29.0,29.59,NNW,337,19.0,20.0,96,0.00,,,0.00,VWS V14.01,2013-01-11 07:26:00,
2013-01-11 00:31:00,30.0,28.7,29.59,NW,315,15.0,21.0,95,0.00,,,0.00,VWS V14.01,2013-01-11 07:31:00,
2013-01-11 00:36:00,29.0,26.7,29.59,NW,315,17.0,23.0,91,0.00,,,0.00,VWS V14.01,2013-01-11 07:36:00,
2013-01-11 00:41:00,29.0,24.8,29.60,NW,315,24.0,28.0,84,0.00,,,0.00,VWS V14.01,2013-01-11 07:41:00,
2013-01-11 00:46:00,29.0,23.6,29.60,NNW,337,23.0,28.0,80,0.00,,,0.00,VWS V14.01,2013-01-11 07:46:00,
2013-01-11 00:51:00,29.0,23.0,29.61,NW,315,21.0,27.0,78,0.00,,,0.00,VWS V14.01,2013-01-11 07:51:00,
2013-01-11 00:56:00,29.0,23.0,29.61,NNW,337,17.0,24.0,78,0.00,,,0.00,VWS V14.01,2013-01-11 07:56:00,
2013-01-11 01:01:00,29.0,23.6,29.59,NW,315,20.0,30.0,80,0.00,,,0.00,VWS V14.01,2013-01-11 08:01:00,
2013-01-11 01:06:00,29.0,23.9,29.59,NW,315,28.0,33.0,81,0.00,,,0.00,VWS V14.01,2013-01-11 08:06:00,
2013-01-11 01:11:00,29.0,23.9,29.57,NNW,337,22.0,29.0,81,0.00,,,0.00,VWS V14.01,2013-01-11 08:11:00,
2013-01-11 01:16:00,29.0,24.2,29.57,NNW,337,28.0,32.0,82,0.00,,,0.00,VWS V14.01,2013-01-11 08:16:00,
2013-01-11 01:21:00,29.0,24.5,29.57,NW,315,29.0,31.0,83,0.00,,,0.00,VWS V14.01,2013-01-11 08:21:00,
2013-01-11 01:26:00,29.0,25.1,29.57,NW,315,20.0,26.0,85,0.00,,,0.00,VWS V14.01,2013-01-11 08:26:00,
2013-01-11 01:31:00,29.0,25.6,29.57,NNW,337,23.0,34.0,87,0.00,,,0.00,VWS V14.01,2013-01-11 08:31:00,
2013-01-11 01:36:00,29.0,25.9,29.57,NW,315,32.0,35.0,88,0.00,,,0.00,VWS V14.01,2013-01-11 08:36:00,
2013-01-11 01:41:00,29.0,25.9,29.58,NNW,337,21.0,29.0,88,0.00,,,0.00,VWS V14.01,2013-01-11 08:41:00,
2013-01-11 01:46:00,29.0,25.9,29.58,NNW,337,32.0,35.0,88,0.00,,,0.00,VWS V14.01,2013-01-11 08:46:00,
2013-01-11 01:51:00,29.0,25.6,29.59,NNW,337,25.0,29.0,87,0.00,,,0.00,VWS V14.01,2013-01-11 08:51:00,
2013-01-11 01:56:00,29.0,25.1,29.59,NNW,337,23.0,29.0,85,0.00,,,0.00,VWS V14.01,2013-01-11 08:56:00,
2013-01-11 02:01:00,28.0,23.2,29.59,NNW,337,22.0,31.0,82,0.00,,,0.00,VWS V14.01,2013-01-11 09:01:00,
2013-01-11 02:06:00,28.0,22.6,29.59,NNW,337,25.0,32.0,80,0.00,,,0.00,VWS V14.01,2013-01-11 09:06:00,
2013-01-11 02:11:00,28.0,22.6,29.58,NNW,337,24.0,29.0,80,0.00,,,0.00,VWS V14.01,2013-01-11 09:11:00,
2013-01-11 02:16:00,27.0,21.7,29.58,NNW,337,25.0,33.0,80,0.00,,,0.00,VWS V14.01,2013-01-11 09:16:00,
2013-01-11 02:21:00,27.0,21.7,29.56,NNW,337,23.0,31.0,80,0.00,,,0.00,VWS V14.01,2013-01-11 09:21:00,
2013-01-11 02:26:00,27.0,22.0,29.56,NW,315,31.0,32.0,81,0.00,,,0.00,VWS V14.01,2013-01-11 09:26:00,
2013-01-11 02:31:00,27.0,22.0,29.57,NNW,337,29.0,34.0,81,0.00,,,0.00,VWS V14.01,2013-01-11 09:31:00,
2013-01-11 02:36:00,26.0,21.0,29.57,NNW,337,26.0,42.0,81,0.00,,,0.00,VWS V14.01,2013-01-11 09:36:00,
2013-01-11 02:41:00,26.0,20.7,29.57,NNW,337,29.0,36.0,80,0.00,,,0.00,VWS V14.01,2013-01-11 09:41:00,
2013-01-11 02:46:00,26.0,20.4,29.57,NNW,337,29.0,38.0,79,0.00,,,0.00,VWS V14.01,2013-01-11 09:46:00,
2013-01-11 02:51:00,26.0,20.4,29.57,NNW,337,36.0,37.0,79,0.00,,,0.00,VWS V14.01,2013-01-11 09:51:00,
2013-01-11 02:56:00,25.0,19.7,29.57,NNW,337,34.0,37.0,80,0.00,,,0.00,VWS V14.01,2013-01-11 09:56:00,
2013-01-11 03:01:00,25.0,20.3,29.57,NNW,337,24.0,31.0,82,0.00,,,0.00,VWS V14.01,2013-01-11 10:01:00,
2013-01-11 03:06:00,25.0,21.4,29.57,NNW,337,33.0,41.0,86,0.00,,,0.00,VWS V14.01,2013-01-11 10:06:00,
2013-01-11 03:11:00,25.0,21.4,29.57,NNW,337,26.0,37.0,86,0.00,,,0.00,VWS V14.01,2013-01-11 10:11:00,
2013-01-11 03:16:00,25.0,22.0,29.57,NNW,337,32.0,43.0,88,0.00,,,0.00,VWS V14.01,2013-01-11 10:16:00,
2013-01-11 03:21:00,24.0,20.7,29.57,NNW,337,24.0,32.0,87,0.00,,,0.00,VWS V14.01,2013-01-11 10:21:00,
2013-01-11 03:26:00,24.0,20.7,29.57,NNW,337,34.0,36.0,87,0.00,,,0.00,VWS V14.01,2013-01-11 10:26:00,
2013-01-11 03:31:00,24.0,21.0,29.59,NNW,337,31.0,37.0,88,0.00,,,0.00,VWS V14.01,2013-01-11 10:31:00,
2013-01-11 03:36:00,24.0,21.2,29.59,NNW,337,29.0,34.0,89,0.00,,,0.00,VWS V14.01,2013-01-11 10:36:00,
2013-01-11 03:41:00,24.0,21.8,29.58,NNW,337,28.0,43.0,91,0.00,,,0.00,VWS V14.01,2013-01-11 10:41:00,
2013-01-11 03:46:00,24.0,22.0,29.58,NNW,337,34.0,43.0,92,0.00,,,0.00,VWS V14.01,2013-01-11 10:46:00,
2013-01-11 03:51:00,24.0,22.5,29.57,NNW,337,39.0,39.0,94,0.00,,,0.00,VWS V14.01,2013-01-11 10:51:00,
2013-01-11 03:56:00,24.0,23.0,29.57,NNW,337,41.0,42.0,96,0.00,,,0.00,VWS V14.01,2013-01-11 10:56:00,
2013-01-11 04:01:00,23.0,22.5,29.57,North,360,37.0,42.0,98,0.00,,,0.00,VWS V14.01,2013-01-11 11:01:00,
2013-01-11 04:06:00,23.0,22.5,29.57,NNW,337,31.0,41.0,98,0.00,,,0.00,VWS V14.01,2013-01-11 11:06:00,
2013-01-11 04:11:00,23.0,22.5,29.55,NNW,337,28.0,40.0,98,0.00,,,0.00,VWS V14.01,2013-01-11 11:11:00,
2013-01-11 04:16:00,23.0,22.8,29.55,NNW,337,33.0,43.0,99,0.00,,,0.00,VWS V14.01,2013-01-11 11:16:00,
2013-01-11 04:21:00,23.0,22.8,29.56,NNW,337,31.0,41.0,99,0.00,,,0.00,VWS V14.01,2013-01-11 11:21:00,
2013-01-11 04:26:00,23.0,23.0,29.56,NNW,337,41.0,41.0,100,0.00,,,0.00,VWS V14.01,2013-01-11 11:26:00,
2013-01-11 04:31:00,23.0,23.0,29.55,NNW,337,45.0,45.0,100,0.00,,,0.00,VWS V14.01,2013-01-11 11:31:00,
2013-01-11 04:36:00,22.0,21.8,29.55,NNW,337,30.0,43.0,99,0.00,,,0.00,VWS V14.01,2013-01-11 11:36:00,
2013-01-11 04:41:00,22.0,21.8,29.56,NNW,337,37.0,41.0,99,0.00,,,0.00,VWS V14.01,2013-01-11 11:41:00,
2013-01-11 04:46:00,22.0,21.8,29.56,NNW,337,34.0,46.0,99,0.00,,,0.00,VWS V14.01,2013-01-11 11:46:00,
2013-01-11 04:52:00,22.0,21.8,29.53,NNW,337,32.0,41.0,99,0.00,,,0.00,VWS V14.01,2013-01-11 11:52:00,
2013-01-11 04:57:00,22.0,21.8,29.53,NNW,337,31.0,36.0,99,0.00,,,0.00,VWS V14.01,2013-01-11 11:57:00,
2013-01-11 05:02:00,22.0,21.3,29.55,NNW,337,27.0,38.0,97,0.00,,,0.00,VWS V14.01,2013-01-11 12:02:00,
2013-01-11 05:07:00,22.0,21.3,29.55,NNW,337,37.0,40.0,97,0.00,,,0.00,VWS V14.01,2013-01-11 12:07:00,
2013-01-11 05:12:00,22.0,21.3,29.57,NNW,337,28.0,39.0,97,0.00,,,0.00,VWS V14.01,2013-01-11 12:12:00,
2013-01-11 05:17:00,22.0,21.3,29.57,NNW,337,34.0,43.0,97,0.00,,,0.00,VWS V14.01,2013-01-11 12:17:00,
2013-01-11 05:22:00,21.0,20.5,29.56,NW,315,33.0,42.0,98,0.00,,,0.00,VWS V14.01,2013-01-11 12:22:00,
2013-01-11 05:27:00,21.0,21.0,29.56,NNW,337,34.0,40.0,100,0.00,,,0.00,VWS V14.01,2013-01-11 12:27:00,
2013-01-11 05:32:00,22.0,22.0,29.57,NNW,337,32.0,39.0,100,0.00,,,0.00,VWS V14.01,2013-01-11 12:32:00,
2013-01-11 05:37:00,21.0,21.0,29.57,NNW,337,32.0,43.0,100,0.00,,,0.00,VWS V14.01,2013-01-11 12:37:00,
2013-01-11 05:42:00,21.0,21.0,29.57,NNW,337,37.0,49.0,100,0.00,,,0.00,VWS V14.01,2013-01-11 12:42:00,
2013-01-11 05:47:00,21.0,21.0,29.57,NNW,337,37.0,47.0,100,0.00,,,0.00,VWS V14.01,2013-01-11 12:47:00,
2013-01-11 05:52:00,21.0,21.0,29.56,NNW,337,28.0,48.0,100,0.00,,,0.00,VWS V14.01,2013-01-11 12:52:00,
2013-01-11 05:57:00,21.0,21.0,29.56,NNW,337,35.0,43.0,100,0.00,,,0.00,VWS V14.01,2013-01-11 12:57:00,
2013-01-11 06:02:00,21.0,21.0,29.60,NNW,337,41.0,41.0,100,0.00,,,0.00,VWS V14.01,2013-01-11 13:02:00,
2013-01-11 06:07:00,21.0,21.0,29.60,NW,315,25.0,40.0,100,0.00,,,0.00,VWS V14.01,2013-01-11 13:07:00,
2013-01-11 06:12:00,21.0,21.0,29.59,NNW,337,27.0,35.0,100,0.00,,,0.00,VWS V14.01,2013-01-11 13:12:00,
2013-01-11 06:17:00,21.0,21.0,29.59,NNW,337,31.0,37.0,100,0.00,,,0.00,VWS V14.01,2013-01-11 13:17:00,
2013-01-11 06:22:00,21.0,21.0,29.60,NNW,337,22.0,35.0,100,0.00,,,0.00,VWS V14.01,2013-01-11 13:22:00,
2013-01-11 06:27:00,21.0,21.0,29.60,NNW,337,26.0,35.0,100,0.00,,,0.00,VWS V14.01,2013-01-11 13:27:00,
2013-01-11 06:32:00,21.0,21.0,29.62,NNW,337,28.0,34.0,100,0.00,,,0.00,VWS V14.01,2013-01-11 13:32:00,
2013-01-11 06:37:00,21.0,21.0,29.62,NNW,337,29.0,39.0,100,0.00,,,0.00,VWS V14.01,2013-01-11 13:37:00,
2013-01-11 06:42:00,21.0,21.0,29.62,NNW,337,27.0,32.0,100,0.00,,,0.00,VWS V14.01,2013-01-11 13:42:00,
2013-01-11 06:47:00,20.0,20.0,29.62,North,360,29.0,40.0,100,0.00,,,0.00,VWS V14.01,2013-01-11 13:47:00,
2013-01-11 06:52:00,20.0,20.0,29.63,NNW,337,29.0,40.0,100,0.00,,,0.00,VWS V14.01,2013-01-11 13:52:00,
2013-01-11 06:57:00,20.0,20.0,29.63,NNW,337,32.0,37.0,100,0.00,,,0.00,VWS V14.01,2013-01-11 13:57:00,
2013-01-11 07:02:00,20.0,20.0,29.65,NNW,337,26.0,40.0,100,0.00,,,0.00,VWS V14.01,2013-01-11 14:02:00,
2013-01-11 07:07:00,20.0,20.0,29.65,NNW,337,31.0,35.0,100,0.00,,,0.00,VWS V14.01,2013-01-11 14:07:00,
2013-01-11 07:12:00,20.0,20.0,29.65,NNW,337,28.0,35.0,100,0.00,,,0.00,VWS V14.01,2013-01-11 14:12:00,
2013-01-11 07:17:00,20.0,20.0,29.65,NNW,337,30.0,36.0,100,0.00,,,0.00,VWS V14.01,2013-01-11 14:17:00,
2013-01-11 07:22:00,20.0,20.0,29.66,NW,315,31.0,36.0,100,0.00,,,0.00,VWS V14.01,2013-01-11 14:22:00,
2013-01-11 07:27:00,20.0,20.0,29.66,NNW,337,25.0,40.0,100,0.00,,,0.00,VWS V14.01,2013-01-11 14:27:00,
2013-01-11 07:32:00,20.0,20.0,29.65,NNW,337,26.0,37.0,100,0.00,,,0.00,VWS V14.01,2013-01-11 14:32:00,
2013-01-11 07:37:00,19.0,19.0,29.65,NNW,337,31.0,35.0,100,0.00,,,0.00,VWS V14.01,2013-01-11 14:37:00,
2013-01-11 07:42:00,19.0,19.0,29.66,NNW,337,25.0,35.0,100,0.00,,,0.00,VWS V14.01,2013-01-11 14:42:00,
2013-01-11 07:47:00,19.0,19.0,29.66,NNW,337,28.0,33.0,100,0.00,,,0.00,VWS V14.01,2013-01-11 14:47:00,
2013-01-11 07:52:00,19.0,19.0,29.67,NNW,337,28.0,31.0,100,0.00,,,0.00,VWS V14.01,2013-01-11 14:52:00,
2013-01-11 07:57:00,19.0,19.0,29.67,NW,315,25.0,31.0,100,0.00,,,0.00,VWS V14.01,2013-01-11 14:57:00,
2013-01-11 08:02:00,18.0,18.0,29.68,NNW,337,32.0,33.0,100,0.00,,,0.00,VWS V14.01,2013-01-11 15:02:00,
2013-01-11 08:07:00,18.0,18.0,29.68,NNW,337,28.0,34.0,100,0.00,,,0.00,VWS V14.01,2013-01-11 15:07:00,
2013-01-11 08:12:00,18.0,18.0,29.68,NNW,337,28.0,37.0,100,0.00,,,0.00,VWS V14.01,2013-01-11 15:12:00,
2013-01-11 08:17:00,18.0,18.0,29.68,NNW,337,23.0,34.0,100,0.00,,,0.00,VWS V14.01,2013-01-11 15:17:00,
2013-01-11 08:22:00,18.0,18.0,29.68,NNW,337,22.0,30.0,100,0.00,,,0.00,VWS V14.01,2013-01-11 15:22:00,
2013-01-11 08:27:00,18.0,18.0,29.68,NNW,337,28.0,33.0,100,0.00,,,0.00,VWS V14.01,2013-01-11 15:27:00,
2013-01-11 08:33:00,17.0,17.0,29.67,NNW,337,33.0,35.0,100,0.00,,,0.00,VWS V14.01,2013-01-11 15:33:00,
2013-01-11 08:38:00,17.0,17.0,29.67,NNW,337,21.0,37.0,100,0.00,,,0.00,VWS V14.01,2013-01-11 15:38:00,
2013-01-11 08:43:00,17.0,17.0,29.69,NNW,337,31.0,34.0,100,0.00,,,0.00,VWS V14.01,2013-01-11 15:43:00,
2013-01-11 08:48:00,17.0,17.0,29.69,NNW,337,28.0,35.0,100,0.00,,,0.00,VWS V14.01,2013-01-11 15:48:00,
2013-01-11 08:53:00,16.0,16.0,29.69,NNW,337,25.0,35.0,100,0.00,,,0.00,VWS V14.01,2013-01-11 15:53:00,
2013-01-11 08:58:00,16.0,16.0,29.69,NNW,337,23.0,35.0,100,0.00,,,0.00,VWS V14.01,2013-01-11 15:58:00,
2013-01-11 09:03:00,16.0,16.0,29.71,NW,315,20.0,33.0,100,0.00,,,0.00,VWS V14.01,2013-01-11 16:03:00,
2013-01-11 09:08:00,16.0,16.0,29.71,NNW,337,22.0,36.0,100,0.00,,,0.00,VWS V14.01,2013-01-11 16:08:00,
2013-01-11 09:13:00,16.0,16.0,29.69,NNW,337,29.0,35.0,100,0.00,,,0.00,VWS V14.01,2013-01-11 16:13:00,
2013-01-11 09:18:00,15.0,15.0,29.69,NNW,337,23.0,38.0,100,0.00,,,0.00,VWS V14.01,2013-01-11 16:18:00,
2013-01-11 09:23:00,15.0,15.0,29.70,NNW,337,34.0,38.0,100,0.00,,,0.00,VWS V14.01,2013-01-11 16:23:00,
2013-01-11 09:28:00,15.0,15.0,29.70,NNW,337,31.0,35.0,100,0.00,,,0.00,VWS V14.01,2013-01-11 16:28:00,
2013-01-11 09:33:00,15.0,15.0,29.70,NW,315,23.0,40.0,100,0.00,,,0.00,VWS V14.01,2013-01-11 16:33:00,
2013-01-11 09:38:00,15.0,15.0,29.70,NNW,337,22.0,37.0,100,0.00,,,0.00,VWS V14.01,2013-01-11 16:38:00,
2013-01-11 09:43:00,15.0,15.0,29.70,NNW,337,22.0,35.0,100,0.00,,,0.00,VWS V14.01,2013-01-11 16:43:00,
2013-01-11 09:48:00,14.0,14.0,29.70,NNW,337,31.0,37.0,100,0.00,,,0.00,VWS V14.01,2013-01-11 16:48:00,
2013-01-11 09:53:00,14.0,14.0,29.70,NNW,337,24.0,40.0,100,0.00,,,0.00,VWS V14.01,2013-01-11 16:53:00,
2013-01-11 09:58:00,14.0,14.0,29.72,NNW,337,30.0,36.0,100,0.00,,,0.00,VWS V14.01,2013-01-11 16:58:00,
2013-01-11 10:03:00,14.0,14.0,29.72,NNW,337,25.0,31.0,100,0.00,,,0.00,VWS V14.01,2013-01-11 17:03:00,
2013-01-11 10:08:00,14.0,14.0,29.70,NNW,337,30.0,34.0,100,0.00,,,0.00,VWS V14.01,2013-01-11 17:08:00,
2013-01-11 10:13:00,14.0,14.0,29.70,NW,315,28.0,35.0,100,0.00,,,0.00,VWS V14.01,2013-01-11 17:13:00,
2013-01-11 10:18:00,14.0,14.0,29.71,NW,315,22.0,29.0,100,0.00,,,0.00,VWS V14.01,2013-01-11 17:18:00,
2013-01-11 10:23:00,14.0,14.0,29.71,NNW,337,20.0,32.0,100,0.00,,,0.00,VWS V14.01,2013-01-11 17:23:00,
2013-01-11 10:28:00,15.0,15.0,29.72,NNW,337,15.0,29.0,100,0.00,,,0.00,VWS V14.01,2013-01-11 17:28:00,
2013-01-11 10:33:00,15.0,15.0,29.72,NNW,337,20.0,29.0,100,0.00,,,0.00,VWS V14.01,2013-01-11 17:33:00,
2013-01-11 10:38:00,15.0,15.0,29.71,NW,315,26.0,30.0,100,0.00,,,0.00,VWS V14.01,2013-01-11 17:38:00,
2013-01-11 10:43:00,15.0,15.0,29.71,NNW,337,22.0,34.0,100,0.00,,,0.00,VWS V14.01,2013-01-11 17:43:00,
2013-01-11 10:48:00,15.0,15.0,29.71,NNW,337,29.0,31.0,100,0.00,,,0.00,VWS V14.01,2013-01-11 17:48:00,
2013-01-11 10:53:00,15.0,15.0,29.71,NNW,337,23.0,30.0,100,0.00,,,0.00,VWS V14.01,2013-01-11 17:53:00,
2013-01-11 10:58:00,15.0,15.0,29.70,NNW,337,30.0,30.0,100,0.00,,,0.00,VWS V14.01,2013-01-11 17:58:00,
2013-01-11 11:03:00,15.0,15.0,29.70,NNW,337,26.0,32.0,100,0.00,,,0.00,VWS V14.01,2013-01-11 18:03:00,
2013-01-11 11:08:00,15.0,15.0,29.71,NNW,337,22.0,31.0,100,0.00,,,0.00,VWS V14.01,2013-01-11 18:08:00,
2013-01-11 11:13:00,15.0,15.0,29.71,NNW,337,21.0,29.0,100,0.00,,,0.00,VWS V14.01,2013-01-11 18:13:00,
2013-01-11 11:18:00,14.0,14.0,29.70,NNW,337,23.0,32.0,100,0.00,,,0.00,VWS V14.01,2013-01-11 18:18:00,
2013-01-11 11:23:00,15.0,15.0,29.70,NW,315,23.0,34.0,100,0.00,,,0.00,VWS V14.01,2013-01-11 18:23:00,
2013-01-11 11:28:00,15.0,15.0,29.68,NNW,337,26.0,34.0,100,0.00,,,0.00,VWS V14.01,2013-01-11 18:28:00,
2013-01-11 11:33:00,15.0,15.0,29.68,NNW,337,29.0,34.0,100,0.00,,,0.00,VWS V14.01,2013-01-11 18:33:00,
2013-01-11 11:38:00,15.0,15.0,29.69,NW,315,24.0,32.0,100,0.00,,,0.00,VWS V14.01,2013-01-11 18:38:00,
2013-01-11 11:43:00,15.0,15.0,29.69,NW,315,22.0,34.0,100,0.00,,,0.00,VWS V14.01,2013-01-11 18:43:00,
2013-01-11 11:48:00,15.0,15.0,29.69,NW,315,23.0,37.0,100,0.00,,,0.00,VWS V14.01,2013-01-11 18:48:00,
2013-01-11 11:53:00,15.0,15.0,29.69,NW,315,22.0,35.0,100,0.00,,,0.00,VWS V14.01,2013-01-11 18:53:00,
2013-01-11 11:58:00,15.0,15.0,29.68,NW,315,28.0,38.0,100,0.00,,,0.00,VWS V14.01,2013-01-11 18:58:00,
2013-01-11 12:03:00,15.0,15.0,29.68,NW,315,22.0,30.0,100,0.00,,,0.00,VWS V14.01,2013-01-11 19:03:00,
2013-01-11 12:08:00,15.0,15.0,29.71,NNW,337,20.0,26.0,100,0.00,,,0.00,VWS V14.01,2013-01-11 19:08:00,
2013-01-11 12:13:00,15.0,15.0,29.71,NW,315,17.0,26.0,100,0.00,,,0.00,VWS V14.01,2013-01-11 19:13:00,
2013-01-11 12:18:00,15.0,15.0,29.71,NNW,337,17.0,21.0,100,0.00,,,0.00,VWS V14.01,2013-01-11 19:18:00,
2013-01-11 12:23:00,14.0,14.0,29.71,NW,315,16.0,26.0,100,0.00,,,0.00,VWS V14.01,2013-01-11 19:23:00,
2013-01-11 12:28:00,14.0,14.0,29.72,NW,315,16.0,20.0,100,0.00,,,0.00,VWS V14.01,2013-01-11 19:28:00,
2013-01-11 12:33:00,14.0,14.0,29.72,NW,315,15.0,24.0,100,0.00,,,0.00,VWS V14.01,2013-01-11 19:33:00,
2013-01-11 12:38:00,14.0,14.0,29.71,NW,315,21.0,27.0,100,0.00,,,0.00,VWS V14.01,2013-01-11 19:38:00,
2013-01-11 12:43:00,14.0,14.0,29.71,NNW,337,19.0,25.0,100,0.00,,,0.00,VWS V14.01,2013-01-11 19:43:00,
2013-01-11 12:48:00,14.0,14.0,29.73,NNW,337,17.0,27.0,100,0.00,,,0.00,VWS V14.01,2013-01-11 19:48:00,
2013-01-11 12:53:00,13.0,13.0,29.73,NW,315,26.0,28.0,100,0.00,,,0.00,VWS V14.01,2013-01-11 19:53:00,
2013-01-11 12:58:00,14.0,14.0,29.71,NNW,337,23.0,28.0,100,0.00,,,0.00,VWS V14.01,2013-01-11 19:58:00,
2013-01-11 13:03:00,14.0,14.0,29.71,NNW,337,27.0,29.0,100,0.00,,,0.00,VWS V14.01,2013-01-11 20:03:00,
2013-01-11 13:08:00,13.0,13.0,29.71,NNW,337,27.0,32.0,100,0.00,,,0.00,VWS V14.01,2013-01-11 20:08:00,
2013-01-11 13:13:00,13.0,13.0,29.71,NNW,337,25.0,31.0,100,0.00,,,0.00,VWS V14.01,2013-01-11 20:13:00,
2013-01-11 13:18:00,14.0,14.0,29.71,NW,315,22.0,29.0,100,0.00,,,0.00,VWS V14.01,2013-01-11 20:18:00,
2013-01-11 13:23:00,13.0,13.0,29.71,NW,315,24.0,31.0,100,0.00,,,0.00,VWS V14.01,2013-01-11 20:23:00,
2013-01-11 13:28:00,13.0,13.0,29.72,NW,315,24.0,31.0,100,0.00,,,0.00,VWS V14.01,2013-01-11 20:28:00,
2013-01-11 13:33:00,13.0,13.0,29.72,NW,315,19.0,29.0,100,0.00,,,0.00,VWS V14.01,2013-01-11 20:33:00,
2013-01-11 13:38:00,13.0,13.0,29.72,NNW,337,24.0,30.0,100,0.00,,,0.00,VWS V14.01,2013-01-11 20:38:00,
2013-01-11 13:43:00,13.0,13.0,29.72,NNW,337,24.0,29.0,100,0.00,,,0.00,VWS V14.01,2013-01-11 20:43:00,
2013-01-11 13:48:00,13.0,13.0,29.72,NW,315,16.0,29.0,100,0.00,,,0.00,VWS V14.01,2013-01-11 20:48:00,
2013-01-11 13:53:00,13.0,13.0,29.72,NNW,337,23.0,29.0,100,0.00,,,0.00,VWS V14.01,2013-01-11 20:53:00,
2013-01-11 13:58:00,13.0,13.0,29.73,NW,315,22.0,24.0,100,0.00,,,0.00,VWS V14.01,2013-01-11 20:58:00,
2013-01-11 14:03:00,13.0,13.0,29.73,NW,315,18.0,24.0,100,0.00,,,0.00,VWS V14.01,2013-01-11 21:03:00,
2013-01-11 14:08:00,13.0,13.0,29.74,NW,315,19.0,25.0,100,0.00,,,0.00,VWS V14.01,2013-01-11 21:08:00,
2013-01-11 14:13:00,13.0,13.0,29.74,NW,315,15.0,26.0,100,0.00,,,0.00,VWS V14.01,2013-01-11 21:13:00,
2013-01-11 14:18:00,13.0,13.0,29.76,NW,315,19.0,26.0,100,0.00,,,0.00,VWS V14.01,2013-01-11 21:18:00,
2013-01-11 14:23:00,13.0,13.0,29.76,NW,315,23.0,26.0,100,0.00,,,0.00,VWS V14.01,2013-01-11 21:23:00,
2013-01-11 14:28:00,13.0,13.0,29.77,NW,315,20.0,23.0,100,0.00,,,0.00,VWS V14.01,2013-01-11 21:28:00,
2013-01-11 14:34:00,12.0,12.0,29.77,NW,315,12.0,24.0,100,0.00,,,0.00,VWS V14.01,2013-01-11 21:34:00,
2013-01-11 14:39:00,12.0,12.0,29.78,NW,315,19.0,28.0,100,0.00,,,0.00,VWS V14.01,2013-01-11 21:39:00,
2013-01-11 14:44:00,12.0,12.0,29.78,NW,315,22.0,28.0,100,0.00,,,0.00,VWS V14.01,2013-01-11 21:44:00,
2013-01-11 14:49:00,12.0,12.0,29.78,NW,315,23.0,26.0,100,0.00,,,0.00,VWS V14.01,2013-01-11 21:49:00,
2013-01-11 14:54:00,12.0,12.0,29.78,NW,315,28.0,28.0,100,0.00,,,0.00,VWS V14.01,2013-01-11 21:54:00,
2013-01-11 14:59:00,12.0,12.0,29.78,NW,315,23.0,28.0,100,0.00,,,0.00,VWS V14.01,2013-01-11 21:59:00,
2013-01-11 15:04:00,12.0,12.0,29.78,NW,315,19.0,25.0,100,0.00,,,0.00,VWS V14.01,2013-01-11 22:04:00,
2013-01-11 15:09:00,12.0,12.0,29.79,NW,315,21.0,24.0,100,0.00,,,0.00,VWS V14.01,2013-01-11 22:09:00,
2013-01-11 15:14:00,12.0,12.0,29.79,NW,315,20.0,26.0,100,0.00,,,0.00,VWS V14.01,2013-01-11 22:14:00,
2013-01-11 15:19:00,12.0,12.0,29.78,NW,315,25.0,29.0,100,0.00,,,0.00,VWS V14.01,2013-01-11 22:19:00,
2013-01-11 15:24:00,12.0,12.0,29.78,NW,315,20.0,26.0,100,0.00,,,0.00,VWS V14.01,2013-01-11 22:24:00,
2013-01-11 15:29:00,12.0,12.0,29.79,NW,315,21.0,26.0,100,0.00,,,0.00,VWS V14.01,2013-01-11 22:29:00,
2013-01-11 15:34:00,12.0,12.0,29.79,WNW,292,22.0,25.0,100,0.00,,,0.00,VWS V14.01,2013-01-11 22:34:00,
2013-01-11 15:39:00,12.0,12.0,29.79,NW,315,19.0,29.0,100,0.00,,,0.00,VWS V14.01,2013-01-11 22:39:00,
2013-01-11 15:44:00,12.0,12.0,29.79,NW,315,29.0,31.0,100,0.00,,,0.00,VWS V14.01,2013-01-11 22:44:00,
2013-01-11 15:49:00,12.0,12.0,29.78,NW,315,29.0,36.0,100,0.00,,,0.00,VWS V14.01,2013-01-11 22:49:00,
2013-01-11 15:54:00,12.0,12.0,29.78,NW,315,21.0,32.0,100,0.00,,,0.00,VWS V14.01,2013-01-11 22:54:00,
2013-01-11 15:59:00,12.0,12.0,29.79,NW,315,25.0,32.0,100,0.00,,,0.00,VWS V14.01,2013-01-11 22:59:00,
2013-01-11 16:04:00,12.0,12.0,29.79,NW,315,21.0,30.0,100,0.00,,,0.00,VWS V14.01,2013-01-11 23:04:00,
2013-01-11 16:09:00,12.0,12.0,29.80,NW,315,19.0,27.0,100,0.00,,,0.00,VWS V14.01,2013-01-11 23:09:00,
2013-01-11 16:14:00,12.0,12.0,29.80,WNW,292,17.0,26.0,100,0.00,,,0.00,VWS V14.01,2013-01-11 23:14:00,
2013-01-11 16:19:00,12.0,12.0,29.81,NW,315,16.0,25.0,100,0.00,,,0.00,VWS V14.01,2013-01-11 23:19:00,
2013-01-11 16:34:00,12.0,12.0,29.82,NW,315,19.0,35.0,100,0.00,,,0.00,VWS V14.01,2013-01-11 23:34:00,
2013-01-11 16:39:00,11.0,11.0,29.83,NW,315,18.0,26.0,100,0.00,,,0.00,VWS V14.01,2013-01-11 23:39:00,
2013-01-11 16:44:00,11.0,11.0,29.83,NW,315,16.0,26.0,100,0.00,,,0.00,VWS V14.01,2013-01-11 23:44:00,
2013-01-11 16:49:00,11.0,11.0,29.83,NW,315,15.0,22.0,100,0.00,,,0.00,VWS V14.01,2013-01-11 23:49:00,
2013-01-11 16:54:00,11.0,11.0,29.83,NW,315,15.0,21.0,100,0.00,,,0.00,VWS V14.01,2013-01-11 23:54:00,
2013-01-11 16:59:00,11.0,11.0,29.84,NW,315,22.0,23.0,100,0.00,,,0.00,VWS V14.01,2013-01-11 23:59:00,
2013-01-11 17:04:00,11.0,11.0,29.84,NW,315,16.0,22.0,100,0.00,,,0.00,VWS V14.01,2013-01-12 00:04:00,
2013-01-11 17:09:00,11.0,11.0,29.84,NW,315,17.0,21.0,100,0.00,,,0.00,VWS V14.01,2013-01-12 00:09:00,
2013-01-11 17:14:00,11.0,11.0,29.84,NW,315,21.0,24.0,100,0.00,,,0.00,VWS V14.01,2013-01-12 00:14:00,
2013-01-11 17:19:00,11.0,11.0,29.83,NW,315,16.0,24.0,100,0.00,,,0.00,VWS V14.01,2013-01-12 00:19:00,
2013-01-11 17:24:00,11.0,11.0,29.83,NW,315,21.0,22.0,100,0.00,,,0.00,VWS V14.01,2013-01-12 00:24:00,
2013-01-11 17:29:00,11.0,11.0,29.84,NW,315,15.0,21.0,100,0.00,,,0.00,VWS V14.01,2013-01-12 00:29:00,
2013-01-11 17:34:00,11.0,11.0,29.84,NW,315,17.0,25.0,100,0.00,,,0.00,VWS V14.01,2013-01-12 00:34:00,
2013-01-11 17:39:00,11.0,11.0,29.84,NW,315,19.0,24.0,100,0.00,,,0.00,VWS V14.01,2013-01-12 00:39:00,
2013-01-11 17:44:00,11.0,11.0,29.84,NW,315,16.0,22.0,100,0.00,,,0.00,VWS V14.01,2013-01-12 00:44:00,
2013-01-11 17:49:00,11.0,11.0,29.85,NW,315,19.0,20.0,100,0.00,,,0.00,VWS V14.01,2013-01-12 00:49:00,
2013-01-11 17:54:00,11.0,11.0,29.85,NW,315,13.0,19.0,100,0.00,,,0.00,VWS V14.01,2013-01-12 00:54:00,
2013-01-11 17:59:00,11.0,11.0,29.86,WNW,292,11.0,19.0,100,0.00,,,0.00,VWS V14.01,2013-01-12 00:59:00,
2013-01-11 18:04:00,11.0,11.0,29.86,NW,315,7.0,16.0,100,0.00,,,0.00,VWS V14.01,2013-01-12 01:04:00,
2013-01-11 18:09:00,12.0,12.0,29.85,WNW,292,10.0,20.0,100,0.00,,,0.00,VWS V14.01,2013-01-12 01:09:00,
2013-01-11 18:14:00,12.0,11.3,29.85,WNW,292,9.0,18.0,97,0.00,,,0.00,VWS V14.01,2013-01-12 01:14:00,
2013-01-11 18:19:00,12.0,10.1,29.86,WNW,292,9.0,22.0,92,0.00,,,0.00,VWS V14.01,2013-01-12 01:19:00,
2013-01-11 18:24:00,11.0,9.4,29.86,NW,315,12.0,17.0,93,0.00,,,0.00,VWS V14.01,2013-01-12 01:24:00,
2013-01-11 18:29:00,11.0,9.1,29.87,NW,315,9.0,18.0,92,0.00,,,0.00,VWS V14.01,2013-01-12 01:29:00,
2013-01-11 18:34:00,11.0,8.9,29.87,WNW,292,7.0,13.0,91,0.00,,,0.00,VWS V14.01,2013-01-12 01:34:00,
2013-01-11 18:39:00,11.0,9.1,29.88,NW,315,6.0,10.0,92,0.00,,,0.00,VWS V14.01,2013-01-12 01:39:00,
2013-01-11 18:44:00,11.0,9.4,29.88,NW,315,4.0,10.0,93,0.00,,,0.00,VWS V14.01,2013-01-12 01:44:00,
2013-01-11 18:49:00,11.0,8.9,29.89,NW,315,4.0,10.0,91,0.00,,,0.00,VWS V14.01,2013-01-12 01:49:00,
2013-01-11 18:54:00,11.0,8.6,29.89,WNW,292,3.0,11.0,90,0.00,,,0.00,VWS V14.01,2013-01-12 01:54:00,
2013-01-11 18:59:00,12.0,8.9,29.89,WNW,292,9.0,13.0,87,0.00,,,0.00,VWS V14.01,2013-01-12 01:59:00,
2013-01-11 19:04:00,12.0,8.6,29.89,WNW,292,10.0,19.0,86,0.00,,,0.00,VWS V14.01,2013-01-12 02:04:00,
2013-01-11 19:09:00,12.0,8.4,29.89,WNW,292,6.0,13.0,85,0.00,,,0.00,VWS V14.01,2013-01-12 02:09:00,
2013-01-11 19:14:00,11.0,8.1,29.89,NW,315,15.0,16.0,88,0.00,,,0.00,VWS V14.01,2013-01-12 02:14:00,
2013-01-11 19:19:00,11.0,8.1,29.90,WNW,292,10.0,20.0,88,0.00,,,0.00,VWS V14.01,2013-01-12 02:19:00,
2013-01-11 19:24:00,11.0,7.6,29.90,NW,315,14.0,19.0,86,0.00,,,0.00,VWS V14.01,2013-01-12 02:24:00,
2013-01-11 19:29:00,11.0,7.9,29.90,NW,315,13.0,16.0,87,0.00,,,0.00,VWS V14.01,2013-01-12 02:29:00,
2013-01-11 19:34:00,11.0,7.6,29.90,NW,315,12.0,15.0,86,0.00,,,0.00,VWS V14.01,2013-01-12 02:34:00,
2013-01-11 19:39:00,11.0,8.1,29.91,NW,315,8.0,14.0,88,0.00,,,0.00,VWS V14.01,2013-01-12 02:39:00,
2013-01-11 19:44:00,11.0,8.1,29.91,NW,315,5.0,11.0,88,0.00,,,0.00,VWS V14.01,2013-01-12 02:44:00,
2013-01-11 19:49:00,11.0,8.1,29.91,NW,315,7.0,15.0,88,0.00,,,0.00,VWS V14.01,2013-01-12 02:49:00,
2013-01-11 19:54:00,11.0,8.4,29.91,NW,315,4.0,10.0,89,0.00,,,0.00,VWS V14.01,2013-01-12 02:54:00,
2013-01-11 19:59:00,11.0,8.1,29.92,NW,315,12.0,15.0,88,0.00,,,0.00,VWS V14.01,2013-01-12 02:59:00,
2013-01-11 20:04:00,11.0,8.4,29.92,NW,315,12.0,18.0,89,0.00,,,0.00,VWS V14.01,2013-01-12 03:04:00,
2013-01-11 20:09:00,11.0,8.6,29.93,WNW,292,12.0,17.0,90,0.00,,,0.00,VWS V14.01,2013-01-12 03:09:00,
2013-01-11 20:14:00,11.0,8.6,29.93,WNW,292,7.0,16.0,90,0.00,,,0.00,VWS V14.01,2013-01-12 03:14:00,
2013-01-11 20:19:00,11.0,8.6,29.93,NW,315,9.0,13.0,90,0.00,,,0.00,VWS V14.01,2013-01-12 03:19:00,
2013-01-11 20:24:00,10.0,7.4,29.93,NW,315,15.0,15.0,89,0.00,,,0.00,VWS V14.01,2013-01-12 03:24:00,
2013-01-11 20:29:00,10.0,7.7,29.93,NW,315,12.0,15.0,90,0.00,,,0.00,VWS V14.01,2013-01-12 03:29:00,
2013-01-11 20:34:00,10.0,7.9,29.93,NW,315,9.0,15.0,91,0.00,,,0.00,VWS V14.01,2013-01-12 03:34:00,
2013-01-11 20:39:00,10.0,7.7,29.94,NW,315,15.0,17.0,90,0.00,,,0.00,VWS V14.01,2013-01-12 03:39:00,
2013-01-11 20:45:00,10.0,7.4,29.94,NW,315,12.0,19.0,89,0.00,,,0.00,VWS V14.01,2013-01-12 03:45:00,
2013-01-11 21:00:00,9.0,7.9,29.95,NW,315,14.0,14.0,95,0.00,,,0.00,VWS V14.01,2013-01-12 04:00:00,
2013-01-11 21:15:00,9.0,8.3,29.95,NW,315,12.0,14.0,97,0.00,,,0.00,VWS V14.01,2013-01-12 04:15:00,
2013-01-11 21:30:00,9.0,8.3,29.96,NW,315,12.0,12.0,97,0.00,,,0.00,VWS V14.01,2013-01-12 04:30:00,
2013-01-11 21:45:00,9.0,6.4,29.96,NW,315,12.0,12.0,89,0.00,,,0.00,VWS V14.01,2013-01-12 04:45:00,
2013-01-11 22:00:00,8.0,5.7,29.97,WNW,292,12.0,12.0,90,0.00,,,0.00,VWS V14.01,2013-01-12 05:00:00,
2013-01-11 22:19:00,8.0,4.4,29.98,West,270,10.0,12.0,85,0.00,,,0.00,VWS V14.01,2013-01-12 05:19:00,
2013-01-11 22:20:00,8.0,4.4,29.98,West,270,10.0,12.0,85,0.00,,,0.00,VWS V14.01,2013-01-12 05:20:00,
2013-01-11 22:21:00,8.0,4.9,29.98,WNW,292,18.0,18.0,87,0.00,,,0.00,VWS V14.01,2013-01-12 05:21:00,
2013-01-11 22:26:00,8.0,4.9,29.98,WNW,292,12.0,16.0,87,0.00,,,0.00,VWS V14.01,2013-01-12 05:26:00,
2013-01-11 22:31:00,8.0,5.2,29.99,WNW,292,7.0,14.0,88,0.00,,,0.00,VWS V14.01,2013-01-12 05:31:00,
2013-01-11 22:36:00,8.0,5.9,29.99,WNW,292,8.0,12.0,91,0.00,,,0.00,VWS V14.01,2013-01-12 05:36:00,
2013-01-11 22:41:00,8.0,5.9,29.99,West,270,7.0,12.0,91,0.00,,,0.00,VWS V14.01,2013-01-12 05:41:00,
2013-01-11 22:46:00,8.0,6.6,29.99,WNW,292,5.0,11.0,94,0.00,,,0.00,VWS V14.01,2013-01-12 05:46:00,
2013-01-11 22:51:00,8.0,5.9,29.99,WNW,292,6.0,12.0,91,0.00,,,0.00,VWS V14.01,2013-01-12 05:51:00,
2013-01-11 22:56:00,7.0,5.6,29.99,WNW,292,2.0,7.0,94,0.00,,,0.00,VWS V14.01,2013-01-12 05:56:00,
2013-01-11 23:01:00,7.0,5.6,30.00,West,270,3.0,8.0,94,0.00,,,0.00,VWS V14.01,2013-01-12 06:01:00,
2013-01-11 23:06:00,7.0,5.6,30.00,West,270,5.0,9.0,94,0.00,,,0.00,VWS V14.01,2013-01-12 06:06:00,
2013-01-11 23:11:00,7.0,5.9,30.01,WNW,292,6.0,6.0,95,0.00,,,0.00,VWS V14.01,2013-01-12 06:11:00,
2013-01-11 23:16:00,7.0,6.1,30.01,WNW,292,3.0,8.0,96,0.00,,,0.00,VWS V14.01,2013-01-12 06:16:00,
2013-01-11 23:21:00,7.0,5.9,30.02,West,270,6.0,7.0,95,0.00,,,0.00,VWS V14.01,2013-01-12 06:21:00,
2013-01-11 23:26:00,7.0,6.1,30.02,WNW,292,3.0,7.0,96,0.00,,,0.00,VWS V14.01,2013-01-12 06:26:00,
2013-01-11 23:31:00,7.0,6.1,30.02,WNW,292,6.0,7.0,96,0.00,,,0.00,VWS V14.01,2013-01-12 06:31:00,
2013-01-11 23:36:00,7.0,6.1,30.02,WNW,292,1.0,8.0,96,0.00,,,0.00,VWS V14.01,2013-01-12 06:36:00,
2013-01-11 23:41:00,7.0,6.1,30.02,WNW,292,7.0,7.0,96,0.00,,,0.00,VWS V14.01,2013-01-12 06:41:00,
2013-01-11 23:46:00,7.0,6.6,30.02,West,270,4.0,9.0,98,0.00,,,0.00,VWS V14.01,2013-01-12 06:46:00,
2013-01-11 23:51:00,7.0,6.1,30.02,WNW,292,4.0,7.0,96,0.00,,,0.00,VWS V14.01,2013-01-12 06:51:00,
2013-01-11 23:56:00,7.0,6.1,30.02,West,270,1.0,6.0,96,0.00,,,0.00,VWS V14.01,2013-01-12 06:56:00,